| time (UTC) | temp F | wind direction | speed knots | gust knots | rain 1hr in | rain 24hr in | rain mn in | humidity % | barometer mb |
| 20260903064055 | 70 | 125 | 0.0 | 1.7 | 0.00 | 0.00 | 0.00 | 78 | 1013.1 |
| 20260903063550 | 70 | 66 | 1.7 | 2.6 | 0.00 | 0.00 | 0.00 | 77 | 1013.0 |
| 20260903063046 | 70 | 48 | 0.9 | 1.7 | 0.00 | 0.00 | 0.00 | 77 | 1012.9 |
| 20260903062541 | 70 | 108 | 0.9 | 2.6 | 0.00 | 0.00 | 0.00 | 77 | 1013.0 |
| 20260903062037 | 71 | 119 | 2.6 | 2.6 | 0.00 | 0.00 | 0.00 | 77 | 1013.2 |
| 20260903061532 | 70 | 55 | 0.0 | 2.6 | 0.00 | 0.00 | 0.00 | 77 | 1013.1 |
| 20260903061032 | 70 | 73 | 2.6 | 5.2 | 0.00 | 0.00 | 0.00 | 76 | 1013.0 |
| 20260903060531 | 71 | 69 | 0.9 | 2.6 | 0.00 | 0.00 | 0.00 | 76 | 1012.9 |
| 20260903060027 | 70 | 120 | 0.0 | 2.6 | 0.00 | 0.00 | 0.00 | 77 | 1012.9 |
| 20260903055524 | 70 | 148 | 0.0 | 2.6 | 0.00 | 0.00 | 0.00 | 77 | 1013.1 |
| 20260903055023 | 70 | 123 | 0.9 | 2.6 | 0.00 | 0.00 | 0.00 | 77 | 1013.0 |
| 20260903054518 | 70 | 189 | 0.0 | 3.5 | 0.00 | 0.00 | 0.00 | 77 | 1013.2 |
| 20260903054014 | 70 | 138 | 0.0 | 1.7 | 0.00 | 0.00 | 0.00 | 77 | 1013.0 |
| 20260903053508 | 71 | 109 | 0.9 | 1.7 | 0.00 | 0.00 | 0.00 | 77 | 1013.0 |
| 20260903053005 | 71 | 21 | 0.9 | 2.6 | 0.00 | 0.00 | 0.00 | 77 | 1013.2 |
| 20260903052501 | 71 | 78 | 1.7 | 2.6 | 0.00 | 0.00 | 0.00 | 77 | 1013.1 |
| 20260903051956 | 71 | 88 | 0.9 | 2.6 | 0.00 | 0.00 | 0.00 | 76 | 1013.2 |
| 20260903051451 | 71 | 112 | 0.9 | 2.6 | 0.00 | 0.00 | 0.00 | 76 | 1013.3 |
| 20260903050947 | 71 | 83 | 0.0 | 2.6 | 0.00 | 0.00 | 0.00 | 76 | 1013.5 |
| 20260903050446 | 71 | 67 | 2.6 | 2.6 | 0.00 | 0.00 | 0.00 | 75 | 1013.4 |
| 20260903045941 | 71 | 83 | 2.6 | 7.0 | 0.00 | 0.00 | 0.00 | 74 | 1013.5 |
| 20260903045436 | 71 | 96 | 1.7 | 6.1 | 0.00 | 0.00 | 0.00 | 75 | 1013.4 |
| 20260903044932 | 72 | 49 | 1.7 | 5.2 | 0.00 | 0.00 | 0.00 | 74 | 1013.4 |
| 20260903044427 | 71 | 139 | 2.6 | 5.2 | 0.00 | 0.00 | 0.00 | 75 | 1013.7 |
| 20260903043924 | 72 | 136 | 0.9 | 2.6 | 0.00 | 0.00 | 0.00 | 75 | 1013.5 |
| 20260903043419 | 72 | 59 | 0.9 | 2.6 | 0.00 | 0.00 | 0.00 | 76 | 1013.6 |
| 20260903042917 | 72 | 107 | 0.9 | 3.5 | 0.00 | 0.00 | 0.00 | 75 | 1013.5 |
| 20260903042413 | 72 | 99 | 0.9 | 3.5 | 0.00 | 0.00 | 0.00 | 74 | 1013.4 |
| 20260903041908 | 72 | 109 | 0.9 | 2.6 | 0.00 | 0.00 | 0.00 | 74 | 1013.6 |
| 20260903041405 | 72 | 161 | 0.9 | 1.7 | 0.00 | 0.00 | 0.00 | 74 | 1013.5 |
| 20260903040900 | 72 | 66 | 1.7 | 3.5 | 0.00 | 0.00 | 0.00 | 74 | 1013.8 |
| 20260903040359 | 72 | 98 | 1.7 | 5.2 | 0.00 | 0.00 | 0.00 | 74 | 1013.5 |
| 20260903035855 | 72 | 69 | 1.7 | 2.6 | 0.00 | 0.00 | 0.00 | 74 | 1013.6 |
| 20260903035350 | 72 | 92 | 2.6 | 3.5 | 0.00 | 0.00 | 0.00 | 74 | 1013.6 |
| 20260903034846 | 73 | 88 | 0.9 | 2.6 | 0.00 | 0.00 | 0.00 | 73 | 1013.7 |
| 20260903034341 | 73 | 93 | 1.7 | 6.1 | 0.00 | 0.00 | 0.00 | 73 | 1013.6 |
| 20260903033835 | 73 | 111 | 1.7 | 5.2 | 0.00 | 0.00 | 0.00 | 73 | 1013.7 |
| 20260903033331 | 74 | 33 | 0.9 | 3.5 | 0.00 | 0.00 | 0.00 | 72 | 1013.6 |
| 20260903032830 | 74 | 95 | 2.6 | 5.2 | 0.00 | 0.00 | 0.00 | 71 | 1013.6 |
| 20260903032326 | 74 | 78 | 1.7 | 3.5 | 0.00 | 0.00 | 0.00 | 71 | 1013.5 |
| 20260903031821 | 74 | 106 | 1.7 | 3.5 | 0.00 | 0.00 | 0.00 | 71 | 1013.6 |
| 20260903031320 | 74 | 86 | 1.7 | 2.6 | 0.00 | 0.00 | 0.00 | 70 | 1013.7 |
| 20260903030816 | 74 | 101 | 1.7 | 3.5 | 0.00 | 0.00 | 0.00 | 70 | 1013.7 |
| 20260903030312 | 74 | 79 | 1.7 | 5.2 | 0.00 | 0.00 | 0.00 | 69 | 1013.6 |
| 20260903025808 | 74 | 103 | 1.7 | 3.5 | 0.00 | 0.00 | 0.00 | 69 | 1013.6 |
| 20260903025305 | 74 | 87 | 0.9 | 1.7 | 0.00 | 0.00 | 0.00 | 70 | 1013.8 |
| 20260903024757 | 74 | 67 | 0.0 | 3.5 | 0.00 | 0.00 | 0.00 | 70 | 1013.5 |
| 20260903024257 | 74 | 66 | 0.9 | 1.7 | 0.00 | 0.00 | 0.00 | 70 | 1013.5 |
| 20260903023753 | 74 | 81 | 1.7 | 1.7 | 0.00 | 0.00 | 0.00 | 71 | 1013.7 |
| 20260903023248 | 74 | 170 | 0.0 | 0.9 | 0.00 | 0.00 | 0.00 | 70 | 1013.6 |
| 20260903022742 | 74 | 177 | 0.0 | 1.7 | 0.00 | 0.00 | 0.00 | 70 | 1013.4 |
| 20260903022241 | 74 | 89 | 0.9 | 1.7 | 0.00 | 0.00 | 0.00 | 70 | 1013.7 |
| 20260903021736 | 74 | 37 | 0.9 | 1.7 | 0.00 | 0.00 | 0.00 | 70 | 1013.5 |
| 20260903021232 | 74 | 178 | 0.0 | 1.7 | 0.00 | 0.00 | 0.00 | 69 | 1013.8 |
| 20260903020731 | 74 | 100 | 0.9 | 0.9 | 0.00 | 0.00 | 0.00 | 69 | 1013.6 |
| 20260903020226 | 75 | 77 | 0.0 | 1.7 | 0.00 | 0.00 | 0.00 | 68 | 1013.5 |
| 20260903015722 | 75 | 186 | 0.0 | 0.9 | 0.00 | 0.00 | 0.00 | 68 | 1013.6 |
| 20260903015217 | 75 | 116 | 0.0 | 0.9 | 0.00 | 0.00 | 0.00 | 67 | 1013.6 |
| 20260903014712 | 75 | 189 | 0.0 | 0.0 | 0.00 | 0.00 | 0.00 | 66 | 1013.5 |
| 20260903014211 | 76 | 144 | 0.0 | 0.0 | 0.00 | 0.00 | 0.00 | 65 | 1013.5 |
| 20260903013706 | 76 | 160 | 0.0 | 0.9 | 0.00 | 0.00 | 0.00 | 64 | 1013.7 |
| 20260903013205 | 77 | 66 | 0.0 | 1.7 | 0.00 | 0.00 | 0.00 | 62 | 1013.3 |
| 20260903012704 | 77 | 115 | 0.9 | 1.7 | 0.00 | 0.00 | 0.00 | 62 | 1013.5 |
| 20260903012203 | 78 | 85 | 0.9 | 2.6 | 0.00 | 0.00 | 0.00 | 61 | 1013.5 |
| 20260903011658 | 78 | 191 | 0.0 | 0.0 | 0.00 | 0.00 | 0.00 | 60 | 1013.3 |
| 20260903011158 | 78 | 158 | 0.0 | 2.6 | 0.00 | 0.00 | 0.00 | 59 | 1013.0 |
| 20260903010653 | 78 | 69 | 1.7 | 2.6 | 0.00 | 0.00 | 0.00 | 58 | 1013.2 |
| 20260903010153 | 78 | 86 | 1.7 | 2.6 | 0.00 | 0.00 | 0.00 | 58 | 1013.2 |
| 20260903005646 | 79 | 156 | 0.0 | 1.7 | 0.00 | 0.00 | 0.00 | 57 | 1013.2 |
| 20260903005142 | 79 | 155 | 0.9 | 0.9 | 0.00 | 0.00 | 0.00 | 57 | 1013.1 |
| 20260903004637 | 79 | 162 | 0.0 | 1.7 | 0.00 | 0.00 | 0.00 | 56 | 1013.1 |
| 20260903004131 | 79 | 90 | 1.7 | 1.7 | 0.00 | 0.00 | 0.00 | 56 | 1013.1 |
| 20260903003627 | 80 | 85 | 0.9 | 1.7 | 0.00 | 0.00 | 0.00 | 55 | 1013.2 |
| 20260903003122 | 80 | 34 | 1.7 | 5.2 | 0.00 | 0.00 | 0.00 | 55 | 1013.0 |
| 20260903002618 | 80 | 70 | 0.9 | 1.7 | 0.00 | 0.00 | 0.00 | 55 | 1012.9 |
| 20260903002112 | 80 | 113 | 2.6 | 2.6 | 0.00 | 0.00 | 0.00 | 54 | 1012.9 |
| 20260903001607 | 80 | 124 | 0.9 | 2.6 | 0.00 | 0.00 | 0.00 | 55 | 1013.1 |
| 20260903001106 | 80 | 79 | 1.7 | 5.2 | 0.00 | 0.00 | 0.00 | 54 | 1012.7 |
| 20260903000602 | 80 | 110 | 0.9 | 2.6 | 0.00 | 0.00 | 0.00 | 54 | 1012.8 |
| 20260903000055 | 80 | 78 | 2.6 | 3.5 | 0.00 | 0.00 | 0.00 | 54 | 1012.6 |
| 20260902235549 | 81 | 113 | 0.9 | 6.1 | 0.00 | 0.00 | 0.00 | 54 | 1012.8 |
| 20260902235044 | 82 | 117 | 1.7 | 3.5 | 0.00 | 0.00 | 0.00 | 52 | 1012.8 |
| 20260902234544 | 82 | 119 | 3.5 | 5.2 | 0.00 | 0.00 | 0.00 | 52 | 1013.0 |
| 20260902234042 | 82 | 112 | 1.7 | 3.5 | 0.00 | 0.00 | 0.00 | 52 | 1013.0 |
| 20260902233537 | 82 | 2 | 1.7 | 3.5 | 0.00 | 0.00 | 0.00 | 52 | 1013.0 |
| 20260902233032 | 82 | 171 | 1.7 | 2.6 | 0.00 | 0.00 | 0.00 | 52 | 1013.2 |
| 20260902232531 | 83 | 59 | 3.5 | 7.0 | 0.00 | 0.00 | 0.00 | 51 | 1012.9 |
| 20260902232025 | 83 | 77 | 0.9 | 3.5 | 0.00 | 0.00 | 0.00 | 52 | 1013.0 |
| 20260902231520 | 83 | 14 | 1.7 | 5.2 | 0.00 | 0.00 | 0.00 | 50 | 1013.0 |
| 20260902231015 | 83 | 83 | 2.6 | 5.2 | 0.00 | 0.00 | 0.00 | 50 | 1013.0 |
| 20260902230514 | 83 | 87 | 2.6 | 3.5 | 0.00 | 0.00 | 0.00 | 50 | 1012.9 |
| 20260902230009 | 83 | 68 | 0.9 | 6.1 | 0.00 | 0.00 | 0.00 | 50 | 1012.9 |
| 20260902225504 | 84 | 82 | 0.9 | 2.6 | 0.00 | 0.00 | 0.00 | 50 | 1013.0 |
| 20260902225003 | 83 | 89 | 1.7 | 5.2 | 0.00 | 0.00 | 0.00 | 50 | 1013.3 |
| 20260902224502 | 84 | 71 | 0.9 | 1.7 | 0.00 | 0.00 | 0.00 | 50 | 1013.3 |
| 20260902223954 | 84 | 60 | 4.3 | 6.1 | 0.00 | 0.00 | 0.00 | 49 | 1013.1 |
| 20260902223448 | 83 | 74 | 3.5 | 3.5 | 0.00 | 0.00 | 0.00 | 49 | 1013.3 |
| 20260902222948 | 83 | 135 | 1.7 | 2.6 | 0.00 | 0.00 | 0.00 | 50 | 1013.1 |
| 20260902222446 | 84 | 113 | 1.7 | 6.1 | 0.00 | 0.00 | 0.00 | 49 | 1013.1 |
| 20260902221940 | 85 | 61 | 3.5 | 5.2 | 0.00 | 0.00 | 0.00 | 47 | 1013.3 |
| 20260902221439 | 85 | 86 | 3.5 | 6.1 | 0.00 | 0.00 | 0.00 | 49 | 1013.0 |
| 20260902220935 | 84 | 91 | 1.7 | 2.6 | 0.00 | 0.00 | 0.00 | 51 | 1013.1 |
| 20260902220430 | 85 | 123 | 2.6 | 5.2 | 0.00 | 0.00 | 0.00 | 47 | 1013.1 |
| 20260902215924 | 84 | 208 | 1.7 | 6.1 | 0.00 | 0.00 | 0.00 | 48 | 1013.3 |
| 20260902215420 | 85 | 25 | 2.6 | 3.5 | 0.00 | 0.00 | 0.00 | 49 | 1013.3 |
| 20260902214916 | 86 | 61 | 3.5 | 7.0 | 0.00 | 0.00 | 0.00 | 47 | 1013.3 |
| 20260902214414 | 85 | 161 | 1.7 | 2.6 | 0.00 | 0.00 | 0.00 | 47 | 1013.2 |
| 20260902213909 | 84 | 41 | 1.7 | 3.5 | 0.00 | 0.00 | 0.00 | 48 | 1013.4 |
| 20260902213406 | 85 | 123 | 5.2 | 7.0 | 0.00 | 0.00 | 0.00 | 47 | 1013.6 |
| 20260902212904 | 86 | 58 | 3.5 | 3.5 | 0.00 | 0.00 | 0.00 | 46 | 1013.3 |
| 20260902212400 | 86 | 183 | 1.7 | 6.1 | 0.00 | 0.00 | 0.00 | 45 | 1013.3 |
| 20260902211856 | 84 | 98 | 1.7 | 3.5 | 0.00 | 0.00 | 0.00 | 46 | 1013.5 |
| 20260902211352 | 84 | 165 | 2.6 | 5.2 | 0.00 | 0.00 | 0.00 | 48 | 1013.5 |
| 20260902210846 | 84 | 144 | 1.7 | 5.2 | 0.00 | 0.00 | 0.00 | 46 | 1013.7 |
| 20260902210340 | 84 | 87 | 2.6 | 6.1 | 0.00 | 0.00 | 0.00 | 48 | 1013.5 |
| 20260902205839 | 85 | 84 | 4.3 | 7.8 | 0.00 | 0.00 | 0.00 | 47 | 1013.7 |
| 20260902205333 | 85 | 53 | 1.7 | 2.6 | 0.00 | 0.00 | 0.00 | 47 | 1013.8 |
| 20260902204829 | 84 | 114 | 1.7 | 5.2 | 0.00 | 0.00 | 0.00 | 46 | 1013.9 |
| 20260902204323 | 85 | 56 | 2.6 | 3.5 | 0.00 | 0.00 | 0.00 | 46 | 1014.0 |
| 20260902203819 | 84 | 36 | 3.5 | 8.7 | 0.00 | 0.00 | 0.00 | 48 | 1014.1 |
| 20260902203314 | 87 | 77 | 1.7 | 2.6 | 0.00 | 0.00 | 0.00 | 46 | 1013.7 |
| 20260902202814 | 84 | 238 | 2.6 | 5.2 | 0.00 | 0.00 | 0.00 | 45 | 1013.9 |
| 20260902202311 | 84 | 196 | 0.0 | 5.2 | 0.00 | 0.00 | 0.00 | 47 | 1013.8 |
| 20260902201807 | 84 | 167 | 2.6 | 3.5 | 0.00 | 0.00 | 0.00 | 51 | 1013.9 |
| 20260902201306 | 84 | 112 | 3.5 | 6.1 | 0.00 | 0.00 | 0.00 | 47 | 1013.9 |
| 20260902200801 | 84 | 46 | 2.6 | 3.5 | 0.00 | 0.00 | 0.00 | 49 | 1014.0 |
| 20260902200257 | 84 | 81 | 3.5 | 6.1 | 0.00 | 0.00 | 0.00 | 44 | 1014.1 |
| 20260902195753 | 84 | 42 | 3.5 | 5.2 | 0.00 | 0.00 | 0.00 | 50 | 1013.9 |
| 20260902195252 | 83 | 87 | 3.5 | 5.2 | 0.00 | 0.00 | 0.00 | 49 | 1014.0 |
| 20260902194752 | 83 | 137 | 4.3 | 7.8 | 0.00 | 0.00 | 0.00 | 50 | 1014.1 |
| 20260902194247 | 84 | 4 | 0.9 | 2.6 | 0.00 | 0.00 | 0.00 | 50 | 1014.3 |
| 20260902193743 | 84 | 52 | 2.6 | 5.2 | 0.00 | 0.00 | 0.00 | 54 | 1014.1 |
| 20260902193238 | 85 | 67 | 0.9 | 1.7 | 0.00 | 0.00 | 0.00 | 50 | 1014.3 |
| 20260902192736 | 83 | 73 | 2.6 | 6.1 | 0.00 | 0.00 | 0.00 | 51 | 1014.5 |
| 20260902192235 | 85 | 68 | 2.6 | 3.5 | 0.00 | 0.00 | 0.00 | 50 | 1014.4 |
| 20260902191730 | 83 | 201 | 0.9 | 0.9 | 0.00 | 0.00 | 0.00 | 50 | 1014.5 |
| 20260902191225 | 83 | 81 | 0.9 | 3.5 | 0.00 | 0.00 | 0.00 | 52 | 1014.5 |
| 20260902190720 | 83 | 37 | 0.9 | 5.2 | 0.00 | 0.00 | 0.00 | 48 | 1014.5 |
| 20260902190220 | 82 | 114 | 1.7 | 3.5 | 0.00 | 0.00 | 0.00 | 50 | 1014.6 |
| 20260902185716 | 82 | 9 | 3.5 | 5.2 | 0.00 | 0.00 | 0.00 | 50 | 1014.7 |
| 20260902185212 | 82 | 20 | 3.5 | 3.5 | 0.00 | 0.00 | 0.00 | 51 | 1014.6 |
| 20260902184707 | 82 | 59 | 1.7 | 5.2 | 0.00 | 0.00 | 0.00 | 53 | 1014.9 |
| 20260902184203 | 82 | 39 | 1.7 | 1.7 | 0.00 | 0.00 | 0.00 | 52 | 1014.7 |
| 20260902183658 | 82 | 94 | 0.9 | 6.1 | 0.00 | 0.00 | 0.00 | 51 | 1015.0 |
| 20260902183155 | 82 | 97 | 4.3 | 6.1 | 0.00 | 0.00 | 0.00 | 51 | 1014.7 |
| 20260902182650 | 82 | 208 | 0.9 | 2.6 | 0.00 | 0.00 | 0.00 | 50 | 1014.9 |
| 20260902182147 | 82 | 26 | 3.5 | 5.2 | 0.00 | 0.00 | 0.00 | 50 | 1015.0 |
| 20260902181643 | 82 | 167 | 0.9 | 2.6 | 0.00 | 0.00 | 0.00 | 50 | 1014.9 |
| 20260902181142 | 82 | 116 | 3.5 | 5.2 | 0.00 | 0.00 | 0.00 | 50 | 1014.7 |
| 20260902180641 | 83 | 210 | 2.6 | 5.2 | 0.00 | 0.00 | 0.00 | 50 | 1014.9 |
| 20260902180137 | 81 | 276 | 0.0 | 3.5 | 0.00 | 0.00 | 0.00 | 52 | 1014.7 |
| 20260902175638 | 82 | 143 | 2.6 | 5.2 | 0.00 | 0.00 | 0.00 | 52 | 1014.9 |
| 20260902175134 | 81 | 83 | 3.5 | 7.0 | 0.00 | 0.00 | 0.00 | 51 | 1015.0 |
| 20260902174630 | 82 | 69 | 2.6 | 5.2 | 0.00 | 0.00 | 0.00 | 47 | 1015.2 |
| 20260902174125 | 81 | 103 | 1.7 | 2.6 | 0.00 | 0.00 | 0.00 | 51 | 1015.0 |
| 20260902173620 | 82 | 111 | 5.2 | 7.8 | 0.00 | 0.00 | 0.00 | 50 | 1015.1 |
| 20260902173116 | 81 | 103 | 1.7 | 3.5 | 0.00 | 0.00 | 0.00 | 54 | 1015.2 |
| 20260902172615 | 81 | 38 | 1.7 | 2.6 | 0.00 | 0.00 | 0.00 | 51 | 1015.3 |
| 20260902172109 | 81 | 349 | 1.7 | 5.2 | 0.00 | 0.00 | 0.00 | 53 | 1015.4 |
| 20260902171605 | 80 | 162 | 1.7 | 2.6 | 0.00 | 0.00 | 0.00 | 54 | 1015.5 |
| 20260902171101 | 81 | 113 | 2.6 | 7.0 | 0.00 | 0.00 | 0.00 | 55 | 1015.3 |
| 20260902170556 | 83 | 26 | 0.9 | 3.5 | 0.00 | 0.00 | 0.00 | 52 | 1015.4 |
| 20260902170052 | 82 | 148 | 1.7 | 5.2 | 0.00 | 0.00 | 0.00 | 51 | 1015.1 |
| 20260902165551 | 80 | 140 | 0.0 | 3.5 | 0.00 | 0.00 | 0.00 | 55 | 1015.1 |
| 20260902165045 | 82 | 139 | 1.7 | 2.6 | 0.00 | 0.00 | 0.00 | 54 | 1015.0 |
| 20260902164540 | 79 | 88 | 1.7 | 3.5 | 0.00 | 0.00 | 0.00 | 58 | 1015.3 |
| 20260902164034 | 80 | 113 | 2.6 | 5.2 | 0.00 | 0.00 | 0.00 | 56 | 1014.9 |
| 20260902163530 | 78 | 323 | 1.7 | 5.2 | 0.00 | 0.00 | 0.00 | 59 | 1015.2 |
| 20260902163027 | 81 | 89 | 1.7 | 2.6 | 0.00 | 0.00 | 0.00 | 54 | 1015.2 |
| 20260902162521 | 79 | 77 | 3.5 | 6.1 | 0.00 | 0.00 | 0.00 | 58 | 1015.1 |
| 20260902162017 | 80 | 71 | 3.5 | 5.2 | 0.00 | 0.00 | 0.00 | 54 | 1015.1 |
| 20260902161511 | 77 | 145 | 1.7 | 3.5 | 0.00 | 0.00 | 0.00 | 59 | 1015.3 |
| 20260902161007 | 79 | 109 | 2.6 | 3.5 | 0.00 | 0.00 | 0.00 | 56 | 1015.3 |
| 20260902160503 | 81 | 104 | 3.5 | 5.2 | 0.00 | 0.00 | 0.00 | 56 | 1015.3 |
| 20260902160001 | 79 | 77 | 3.5 | 3.5 | 0.00 | 0.00 | 0.00 | 57 | 1015.1 |
| 20260902155456 | 78 | 146 | 2.6 | 6.1 | 0.00 | 0.00 | 0.00 | 57 | 1014.9 |
| 20260902154950 | 78 | 92 | 2.6 | 6.1 | 0.00 | 0.00 | 0.00 | 58 | 1014.9 |
| 20260902154446 | 78 | 52 | 1.7 | 3.5 | 0.00 | 0.00 | 0.00 | 61 | 1014.7 |
| 20260902153945 | 77 | 139 | 2.6 | 2.6 | 0.00 | 0.00 | 0.00 | 60 | 1015.0 |
| 20260902153438 | 75 | 74 | 0.9 | 1.7 | 0.00 | 0.00 | 0.00 | 66 | 1015.3 |
| 20260902152933 | 78 | 20 | 0.9 | 5.2 | 0.00 | 0.00 | 0.00 | 64 | 1015.2 |
| 20260902152424 | 77 | 105 | 1.7 | 1.7 | 0.00 | 0.00 | 0.00 | 67 | 1015.2 |
| 20260902151919 | 76 | 99 | 0.9 | 1.7 | 0.00 | 0.00 | 0.00 | 64 | 1015.3 |
| 20260902151415 | 77 | 19 | 2.6 | 2.6 | 0.00 | 0.00 | 0.00 | 64 | 1015.2 |
| 20260902150909 | 78 | 61 | 3.5 | 3.5 | 0.00 | 0.00 | 0.00 | 62 | 1015.2 |
| 20260902150405 | 78 | 199 | 0.9 | 1.7 | 0.00 | 0.00 | 0.00 | 60 | 1015.3 |
| 20260902145904 | 78 | 87 | 2.6 | 3.5 | 0.00 | 0.00 | 0.00 | 65 | 1015.3 |
| 20260902145400 | 77 | 93 | 1.7 | 1.7 | 0.00 | 0.00 | 0.00 | 66 | 1015.5 |
| 20260902144854 | 75 | 93 | 1.7 | 1.7 | 0.00 | 0.00 | 0.00 | 71 | 1015.6 |
| 20260902144351 | 75 | 17 | 1.7 | 1.7 | 0.00 | 0.00 | 0.00 | 72 | 1015.6 |
| 20260902143845 | 73 | 105 | 0.9 | 1.7 | 0.00 | 0.00 | 0.00 | 78 | 1015.7 |
| 20260902143339 | 74 | 277 | 0.9 | 0.9 | 0.00 | 0.00 | 0.00 | 76 | 1015.9 |
| 20260902142836 | 73 | 102 | 0.9 | 0.9 | 0.00 | 0.00 | 0.00 | 76 | 1015.8 |
| 20260902142332 | 72 | 104 | 0.9 | 1.7 | 0.00 | 0.00 | 0.00 | 80 | 1015.6 |
| 20260902141826 | 71 | 145 | 0.0 | 0.0 | 0.00 | 0.00 | 0.00 | 82 | 1015.6 |
| 20260902141322 | 72 | 79 | 0.9 | 0.9 | 0.00 | 0.00 | 0.00 | 81 | 1015.5 |
| 20260902140821 | 72 | 66 | 0.0 | 0.9 | 0.00 | 0.00 | 0.00 | 76 | 1015.5 |
| 20260902140317 | 72 | 187 | 0.0 | 0.9 | 0.00 | 0.00 | 0.00 | 75 | 1015.7 |
| 20260902135816 | 72 | 97 | 0.9 | 1.7 | 0.00 | 0.00 | 0.00 | 74 | 1015.4 |
| 20260902135312 | 72 | 54 | 0.0 | 0.9 | 0.00 | 0.00 | 0.00 | 76 | 1015.5 |
| 20260902134811 | 72 | 159 | 0.0 | 0.0 | 0.00 | 0.00 | 0.00 | 78 | 1015.4 |
| 20260902134306 | 72 | 211 | 0.0 | 0.9 | 0.00 | 0.00 | 0.00 | 76 | 1015.4 |
| 20260902133801 | 72 | 133 | 0.0 | 1.7 | 0.00 | 0.00 | 0.00 | 73 | 1015.3 |
| 20260902133301 | 72 | 188 | 0.0 | 0.0 | 0.00 | 0.00 | 0.00 | 78 | 1015.6 |
| 20260902132756 | 73 | 7 | 0.9 | 1.7 | 0.00 | 0.00 | 0.00 | 77 | 1015.5 |
| 20260902132252 | 73 | 120 | 0.0 | 0.0 | 0.00 | 0.00 | 0.00 | 79 | 1015.5 |
| 20260902131747 | 71 | 163 | 0.0 | 0.0 | 0.00 | 0.00 | 0.00 | 81 | 1015.6 |
| 20260902131243 | 71 | 43 | 0.0 | 0.9 | 0.00 | 0.00 | 0.00 | 82 | 1015.5 |
| 20260902130742 | 71 | 127 | 0.0 | 0.0 | 0.00 | 0.00 | 0.00 | 83 | 1015.5 |
| 20260902130239 | 71 | 33 | 0.9 | 0.9 | 0.00 | 0.00 | 0.00 | 82 | 1015.5 |
| 20260902125734 | 70 | 131 | 0.9 | 1.7 | 0.00 | 0.00 | 0.00 | 85 | 1015.4 |
| 20260902125230 | 71 | 58 | 0.9 | 1.7 | 0.00 | 0.00 | 0.00 | 85 | 1015.4 |
| 20260902124726 | 71 | 98 | 0.0 | 1.7 | 0.00 | 0.00 | 0.00 | 84 | 1015.3 |
| 20260902124221 | 71 | 176 | 0.0 | 0.0 | 0.00 | 0.00 | 0.00 | 85 | 1015.4 |
| 20260902123716 | 69 | 88 | 0.9 | 0.9 | 0.00 | 0.00 | 0.00 | 89 | 1015.5 |
| 20260902123207 | 67 | 143 | 0.0 | 0.0 | 0.00 | 0.00 | 0.00 | 95 | 1015.5 |
| 20260902122705 | 66 | 175 | 0.0 | 0.0 | 0.00 | 0.00 | 0.00 | 95 | 1015.4 |
| 20260902122202 | 65 | 164 | 0.0 | 0.0 | 0.00 | 0.00 | 0.00 | 95 | 1015.2 |
| 20260902121656 | 64 | 164 | 0.0 | 0.0 | 0.00 | 0.00 | 0.00 | 95 | 1015.2 |
| 20260902121151 | 63 | 166 | 0.0 | 0.0 | 0.00 | 0.00 | 0.00 | 95 | 1015.4 |
| 20260902120647 | 63 | 116 | 0.9 | 0.9 | 0.00 | 0.00 | 0.00 | 95 | 1015.2 |
| 20260902120143 | 63 | 104 | 0.0 | 0.9 | 0.00 | 0.00 | 0.00 | 96 | 1015.4 |
| 20260902115638 | 63 | 130 | 0.0 | 0.9 | 0.00 | 0.00 | 0.00 | 96 | 1015.5 |
| 20260902115134 | 63 | 155 | 0.0 | 0.0 | 0.00 | 0.00 | 0.00 | 96 | 1015.4 |
| 20260902114629 | 63 | 185 | 0.0 | 0.0 | 0.00 | 0.00 | 0.00 | 96 | 1015.3 |
| 20260902114129 | 63 | 186 | 0.0 | 0.0 | 0.00 | 0.00 | 0.00 | 96 | 1015.3 |
| 20260902113624 | 63 | 186 | 0.0 | 0.0 | 0.00 | 0.00 | 0.00 | 96 | 1015.5 |
| 20260902113119 | 63 | 186 | 0.0 | 0.0 | 0.00 | 0.00 | 0.00 | 96 | 1015.6 |
| 20260902112609 | 63 | 186 | 0.0 | 0.0 | 0.00 | 0.00 | 0.00 | 96 | 1015.3 |
| 20260902112106 | 63 | 172 | 0.0 | 0.0 | 0.00 | 0.00 | 0.00 | 96 | 1015.4 |
| 20260902111602 | 63 | 169 | 0.0 | 0.0 | 0.00 | 0.00 | 0.00 | 96 | 1015.5 |
| 20260902111057 | 62 | 158 | 0.0 | 0.0 | 0.00 | 0.00 | 0.00 | 96 | 1015.3 |
| 20260902110553 | 62 | 157 | 0.0 | 0.0 | 0.00 | 0.00 | 0.00 | 96 | 1015.2 |
| 20260902110049 | 63 | 189 | 0.0 | 0.0 | 0.00 | 0.00 | 0.00 | 96 | 1015.2 |
| 20260902105543 | 63 | 191 | 0.0 | 0.0 | 0.00 | 0.00 | 0.00 | 95 | 1015.1 |
| 20260902105043 | 64 | 203 | 0.0 | 0.0 | 0.00 | 0.00 | 0.00 | 95 | 1015.1 |
| 20260902104538 | 64 | 204 | 0.0 | 0.0 | 0.00 | 0.00 | 0.00 | 95 | 1015.2 |
| 20260902104033 | 64 | 204 | 0.0 | 0.0 | 0.00 | 0.00 | 0.00 | 94 | 1015.1 |
| 20260902103529 | 64 | 204 | 0.0 | 0.0 | 0.00 | 0.00 | 0.00 | 94 | 1015.2 |
| 20260902103024 | 64 | 205 | 0.0 | 0.0 | 0.00 | 0.00 | 0.00 | 93 | 1015.4 |
| 20260902102521 | 64 | 167 | 0.0 | 0.0 | 0.00 | 0.00 | 0.00 | 93 | 1015.4 |
| 20260902102017 | 65 | 185 | 0.0 | 0.0 | 0.00 | 0.00 | 0.00 | 93 | 1015.4 |
| 20260902101512 | 65 | 141 | 0.0 | 0.0 | 0.00 | 0.00 | 0.00 | 93 | 1015.3 |
| 20260902101010 | 65 | 220 | 0.0 | 0.0 | 0.00 | 0.00 | 0.00 | 93 | 1015.6 |
| 20260902100506 | 66 | 241 | 0.0 | 0.0 | 0.00 | 0.00 | 0.00 | 91 | 1015.6 |
| 20260902100000 | 65 | 187 | 0.0 | 0.0 | 0.00 | 0.00 | 0.00 | 91 | 1015.5 |
| 20260902095500 | 65 | 133 | 0.0 | 0.9 | 0.00 | 0.00 | 0.00 | 91 | 1015.5 |
| 20260902094959 | 65 | 172 | 0.0 | 0.0 | 0.00 | 0.00 | 0.00 | 92 | 1015.7 |
| 20260902094455 | 65 | 136 | 0.9 | 0.9 | 0.00 | 0.00 | 0.00 | 92 | 1015.7 |
| 20260902093955 | 65 | 181 | 0.0 | 0.0 | 0.00 | 0.00 | 0.00 | 93 | 1015.7 |
| 20260902093445 | 65 | 223 | 0.0 | 0.0 | 0.00 | 0.00 | 0.00 | 93 | 1015.8 |
| 20260902092944 | 64 | 201 | 0.0 | 0.0 | 0.00 | 0.00 | 0.00 | 93 | 1015.6 |
| 20260902092440 | 65 | 201 | 0.0 | 0.0 | 0.00 | 0.00 | 0.00 | 92 | 1015.7 |
| 20260902091940 | 65 | 184 | 0.0 | 0.0 | 0.00 | 0.00 | 0.00 | 91 | 1015.5 |
| 20260902091435 | 65 | 134 | 0.0 | 0.0 | 0.00 | 0.00 | 0.00 | 91 | 1015.5 |
| 20260902090932 | 66 | 184 | 0.0 | 0.0 | 0.00 | 0.00 | 0.00 | 89 | 1015.6 |
| 20260902090432 | 67 | 184 | 0.0 | 0.0 | 0.00 | 0.00 | 0.00 | 88 | 1015.7 |
| 20260902085930 | 67 | 65 | 0.9 | 0.9 | 0.00 | 0.00 | 0.00 | 87 | 1015.6 |
| 20260902085426 | 67 | 121 | 1.7 | 1.7 | 0.00 | 0.00 | 0.00 | 87 | 1015.6 |
| 20260902084921 | 67 | 136 | 0.9 | 0.9 | 0.00 | 0.00 | 0.00 | 87 | 1015.8 |
| 20260902084418 | 67 | 165 | 0.9 | 1.7 | 0.00 | 0.00 | 0.00 | 87 | 1015.6 |
| 20260902083913 | 67 | 193 | 0.0 | 0.0 | 0.00 | 0.00 | 0.00 | 89 | 1015.5 |
| 20260902083413 | 67 | 188 | 0.0 | 0.0 | 0.00 | 0.00 | 0.00 | 89 | 1015.5 |
| 20260902082908 | 67 | 188 | 0.0 | 0.0 | 0.00 | 0.00 | 0.00 | 89 | 1015.7 |
| 20260902082403 | 67 | 199 | 0.0 | 0.0 | 0.00 | 0.00 | 0.00 | 88 | 1015.4 |
| 20260902081900 | 66 | 174 | 0.0 | 0.0 | 0.00 | 0.00 | 0.00 | 90 | 1015.3 |
| 20260902081355 | 66 | 190 | 0.0 | 0.0 | 0.00 | 0.00 | 0.00 | 90 | 1015.1 |
| 20260902080850 | 66 | 192 | 0.0 | 0.0 | 0.00 | 0.00 | 0.00 | 89 | 1015.1 |
| 20260902080347 | 67 | 193 | 0.0 | 0.0 | 0.00 | 0.00 | 0.00 | 88 | 1015.1 |
| 20260902075846 | 67 | 189 | 0.0 | 0.0 | 0.00 | 0.00 | 0.00 | 87 | 1014.9 |
| 20260902075343 | 67 | 178 | 0.0 | 0.0 | 0.00 | 0.00 | 0.00 | 86 | 1014.5 |
| 20260902074843 | 68 | 178 | 0.0 | 0.0 | 0.00 | 0.00 | 0.00 | 85 | 1014.5 |
| 20260902074338 | 69 | 177 | 0.0 | 0.0 | 0.00 | 0.00 | 0.00 | 83 | 1014.5 |
| 20260902073833 | 70 | 154 | 0.0 | 0.0 | 0.00 | 0.00 | 0.00 | 81 | 1014.2 |
| 20260902073330 | 70 | 95 | 0.9 | 1.7 | 0.00 | 0.00 | 0.00 | 80 | 1014.3 |
| 20260902072825 | 70 | 20 | 0.9 | 1.7 | 0.00 | 0.00 | 0.00 | 80 | 1014.1 |
| 20260902072320 | 69 | 44 | 1.7 | 1.7 | 0.00 | 0.00 | 0.00 | 81 | 1014.3 |
| 20260902071817 | 69 | 189 | 0.0 | 0.0 | 0.00 | 0.00 | 0.00 | 81 | 1014.2 |
| 20260902071312 | 69 | 345 | 0.0 | 0.9 | 0.00 | 0.00 | 0.00 | 81 | 1014.1 |
| 20260902070808 | 69 | 330 | 0.0 | 0.9 | 0.00 | 0.00 | 0.00 | 82 | 1014.3 |
| 20260902070308 | 69 | 164 | 0.0 | 0.0 | 0.00 | 0.00 | 0.00 | 83 | 1014.1 |
| 20260902065807 | 69 | 143 | 0.0 | 0.0 | 0.00 | 0.00 | 0.00 | 82 | 1014.3 |
| 20260902065302 | 70 | 143 | 0.0 | 0.0 | 0.00 | 0.00 | 0.00 | 82 | 1014.3 |
| 20260902064757 | 69 | 179 | 0.0 | 0.9 | 0.00 | 0.00 | 0.00 | 81 | 1014.5 |